User: anonymous   Login
Location: Ostrava
(49.8330°N, 18.2830°E)
Time: 00:35:31
(UTC+02:00)
Language:

Cosmos 1400 Rocket - Orbit

View from above orbital plane
View from above orbital plane
View from above satellite
View from above satellite

Ground track
Ground track

The orbit data is extracted from the following two-line orbital elements,

1 13403U 82079B   16211.90995885 -.00000022 +00000-0 -30434-5 0  9996
2 13403 081.1692 278.3843 0032629 259.4134 100.3414 15.06259313847989
Epoch (UTC): 29 July 2016 21:50:20
Eccentricity: 0.0032629
inclination: 81.1692°
perigee height: 525 km
apogee height: 570 km
right ascension of ascending node: 278.3843°
argument of perigee: 259.4134°
revolutions per day: 15.06259313
mean anomaly at epoch: 100.3414°
orbit number at epoch: 84798

The dashed part of the orbit path shows where the satellite is in the earth's shadow,  

DLR